Time,TemperatureF,DewpointF,PressureIn,WindDirection,WindDirectionDegrees,WindSpeedMPH,WindSpeedGustMPH,Humidity,HourlyPrecipIn,Conditions,Clouds,dailyrainin,SoftwareType,DateUTC
2013-08-11 00:02:00,87.0,70.0,29.97,NNE,19,1.0,3.0,58,0.00,,,0.00,,2013-08-11 05:02:00,
2013-08-11 00:15:00,87.0,71.0,29.97,NNE,19,0.0,0.0,59,0.00,,,0.00,,2013-08-11 05:15:00,
2013-08-11 00:23:00,86.0,70.0,29.97,NNE,19,0.0,0.0,59,0.00,,,0.00,,2013-08-11 05:23:00,
2013-08-11 00:35:00,86.0,70.0,29.96,NNE,19,0.0,2.0,59,0.00,,,0.00,,2013-08-11 05:35:00,
2013-08-11 00:44:00,86.0,70.0,29.96,NNE,19,0.0,1.0,60,0.00,,,0.00,,2013-08-11 05:44:00,
2013-08-11 00:53:00,86.0,71.0,29.96,NNE,19,1.0,2.0,61,0.00,,,0.00,,2013-08-11 05:53:00,
2013-08-11 01:03:00,85.0,70.0,29.96,NNE,19,1.0,3.0,62,0.00,,,0.00,,2013-08-11 06:03:00,
2013-08-11 01:15:00,85.0,70.0,29.96,NNE,32,1.0,7.0,62,0.00,,,0.00,,2013-08-11 06:15:00,
2013-08-11 01:34:00,85.0,71.0,29.96,NNE,32,0.0,0.0,63,0.00,,,0.00,,2013-08-11 06:34:00,
2013-08-11 01:47:00,84.0,70.0,29.96,NNE,32,0.0,0.0,64,0.00,,,0.00,,2013-08-11 06:47:00,
2013-08-11 01:53:00,84.0,71.0,29.96,NNE,33,0.0,0.0,65,0.00,,,0.00,,2013-08-11 06:53:00,
2013-08-11 02:05:00,83.0,71.0,29.96,NNE,33,0.0,0.0,67,0.00,,,0.00,,2013-08-11 07:05:00,
2013-08-11 02:14:00,82.0,71.0,29.96,NNE,33,0.0,0.0,69,0.00,,,0.00,,2013-08-11 07:14:00,
2013-08-11 02:24:00,82.0,71.0,29.96,NNE,33,0.0,0.0,69,0.00,,,0.00,,2013-08-11 07:24:00,
2013-08-11 02:36:00,82.0,71.0,29.96,NNE,33,0.0,0.0,70,0.00,,,0.00,,2013-08-11 07:36:00,
2013-08-11 02:44:00,81.0,70.0,29.96,NNE,33,0.0,0.0,70,0.00,,,0.00,,2013-08-11 07:44:00,
2013-08-11 02:53:00,81.0,70.0,29.96,NNE,33,0.0,0.0,70,0.00,,,0.00,,2013-08-11 07:53:00,
2013-08-11 03:15:00,81.0,70.0,29.96,NNE,33,2.0,3.0,70,0.00,,,0.00,,2013-08-11 08:15:00,
2013-08-11 03:25:00,81.0,70.0,29.96,NNE,33,3.0,5.0,70,0.00,,,0.00,,2013-08-11 08:25:00,
2013-08-11 03:34:00,81.0,70.0,29.96,NE,34,0.0,1.0,70,0.00,,,0.00,,2013-08-11 08:34:00,
2013-08-11 03:45:00,81.0,70.0,29.96,NNE,33,0.0,1.0,70,0.00,,,0.00,,2013-08-11 08:45:00,
2013-08-11 03:54:00,81.0,71.0,29.96,NNE,33,0.0,0.0,71,0.00,,,0.00,,2013-08-11 08:54:00,
2013-08-11 04:04:00,80.0,70.0,29.96,NNE,33,0.0,0.0,72,0.00,,,0.00,,2013-08-11 09:04:00,
2013-08-11 04:13:00,80.0,71.0,29.96,NNE,33,0.0,3.0,73,0.00,,,0.00,,2013-08-11 09:13:00,
2013-08-11 04:25:00,80.0,71.0,29.96,NE,40,3.0,7.0,74,0.00,,,0.00,,2013-08-11 09:25:00,
2013-08-11 04:34:00,79.0,70.0,29.96,NE,40,0.0,3.0,74,0.00,,,0.00,,2013-08-11 09:34:00,
2013-08-11 04:43:00,79.0,70.0,29.95,NE,40,0.0,0.0,74,0.00,,,0.00,,2013-08-11 09:43:00,
2013-08-11 04:55:00,79.0,70.0,29.95,NE,40,0.0,0.0,75,0.00,,,0.00,,2013-08-11 09:55:00,
2013-08-11 05:13:00,79.0,71.0,29.96,NE,40,3.0,5.0,76,0.00,,,0.00,,2013-08-11 10:13:00,
2013-08-11 05:25:00,78.0,70.0,29.96,NE,40,1.0,2.0,76,0.00,,,0.00,,2013-08-11 10:25:00,
2013-08-11 05:33:00,78.0,70.0,29.96,NE,40,0.0,0.0,76,0.00,,,0.00,,2013-08-11 10:33:00,
2013-08-11 05:43:00,78.0,70.0,29.96,NE,40,0.0,1.0,77,0.00,,,0.00,,2013-08-11 10:43:00,
2013-08-11 05:54:00,78.0,70.0,29.96,NE,40,2.0,6.0,77,0.00,,,0.00,,2013-08-11 10:54:00,
2013-08-11 06:05:00,78.0,71.0,29.96,NE,40,0.0,0.0,78,0.00,,,0.00,,2013-08-11 11:05:00,
2013-08-11 06:12:00,77.0,70.0,29.96,NE,40,0.0,0.0,78,0.00,,,0.00,,2013-08-11 11:12:00,
2013-08-11 06:22:00,77.0,70.0,29.96,NE,40,3.0,3.0,78,0.00,,,0.00,,2013-08-11 11:22:00,
2013-08-11 06:35:00,77.0,70.0,29.96,NE,40,0.0,0.0,79,0.00,,,0.00,,2013-08-11 11:35:00,
2013-08-11 06:46:00,77.0,70.0,29.96,NE,40,0.0,0.0,79,0.00,,,0.00,,2013-08-11 11:46:00,
2013-08-11 06:56:00,77.0,70.0,29.97,NE,40,0.0,0.0,80,0.00,,,0.00,,2013-08-11 11:56:00,
2013-08-11 07:05:00,76.0,70.0,29.97,NE,40,0.0,0.0,81,0.00,,,0.00,,2013-08-11 12:05:00,
2013-08-11 07:25:00,76.0,70.0,29.98,NE,40,0.0,0.0,82,0.00,,,0.00,,2013-08-11 12:25:00,
2013-08-11 07:52:00,77.0,71.0,30.00,NE,40,0.0,0.0,81,0.00,,,0.00,,2013-08-11 12:52:00,
2013-08-11 08:04:00,78.0,71.0,29.99,NE,40,3.0,5.0,79,0.00,,,0.00,,2013-08-11 13:04:00,
2013-08-11 08:14:00,79.0,72.0,29.99,NE,40,2.0,5.0,78,0.00,,,0.00,,2013-08-11 13:14:00,
2013-08-11 08:24:00,79.0,71.0,30.00,NE,41,1.0,5.0,77,0.00,,,0.00,,2013-08-11 13:24:00,
2013-08-11 08:36:00,79.0,71.0,30.00,NE,49,2.0,7.0,76,0.00,,,0.00,,2013-08-11 13:36:00,
2013-08-11 08:44:00,80.0,71.0,30.00,NE,50,2.0,6.0,75,0.00,,,0.00,,2013-08-11 13:44:00,
2013-08-11 08:55:00,80.0,71.0,30.00,ENE,63,3.0,6.0,74,0.00,,,0.00,,2013-08-11 13:55:00,
2013-08-11 09:02:00,81.0,71.0,30.00,ENE,67,5.0,8.0,72,0.00,,,0.00,,2013-08-11 14:02:00,
2013-08-11 09:14:00,81.0,72.0,30.01,East,101,4.0,6.0,73,0.00,,,0.00,,2013-08-11 14:14:00,
2013-08-11 09:23:00,82.0,72.0,30.01,SE,131,6.0,10.0,72,0.00,,,0.00,,2013-08-11 14:23:00,
2013-08-11 09:34:00,83.0,73.0,30.01,SSE,151,3.0,7.0,71,0.00,,,0.00,,2013-08-11 14:34:00,
2013-08-11 09:45:00,83.0,72.0,30.01,SSE,164,4.0,12.0,70,0.00,,,0.00,,2013-08-11 14:45:00,
2013-08-11 09:55:00,83.0,72.0,30.01,South,181,3.0,8.0,70,0.00,,,0.00,,2013-08-11 14:55:00,
2013-08-11 10:04:00,83.0,72.0,30.01,South,173,5.0,8.0,69,0.00,,,0.00,,2013-08-11 15:04:00,
2013-08-11 10:13:00,84.0,72.0,30.01,SSE,151,4.0,10.0,68,0.00,,,0.00,,2013-08-11 15:13:00,
2013-08-11 10:23:00,86.0,73.0,30.01,SE,141,3.0,8.0,66,0.00,,,0.00,,2013-08-11 15:23:00,
2013-08-11 10:35:00,87.0,73.0,30.01,SE,145,0.0,8.0,64,0.00,,,0.00,,2013-08-11 15:35:00,
2013-08-11 10:46:00,87.0,73.0,30.01,SSE,155,2.0,7.0,63,0.00,,,0.00,,2013-08-11 15:46:00,
2013-08-11 10:55:00,88.0,73.0,30.01,SSE,149,4.0,9.0,62,0.00,,,0.00,,2013-08-11 15:55:00,
2013-08-11 11:05:00,89.0,73.0,30.01,SSE,148,1.0,7.0,60,0.00,,,0.00,,2013-08-11 16:05:00,
2013-08-11 11:12:00,90.0,74.0,30.01,SE,141,2.0,5.0,59,0.00,,,0.00,,2013-08-11 16:12:00,
2013-08-11 11:44:00,92.0,73.0,30.00,South,180,6.0,12.0,55,0.00,,,0.00,,2013-08-11 16:44:00,
2013-08-11 11:55:00,92.0,73.0,30.00,SSE,159,3.0,9.0,55,0.00,,,0.00,,2013-08-11 16:55:00,
2013-08-11 12:05:00,93.0,73.0,30.00,SSE,149,1.0,7.0,53,0.00,,,0.00,,2013-08-11 17:05:00,
2013-08-11 12:12:00,94.0,74.0,30.00,SSE,148,1.0,6.0,52,0.00,,,0.00,,2013-08-11 17:12:00,
2013-08-11 12:24:00,93.0,73.0,29.99,SSE,161,5.0,9.0,53,0.00,,,0.00,,2013-08-11 17:24:00,
2013-08-11 12:33:00,93.0,73.0,29.99,SSE,161,1.0,3.0,52,0.00,,,0.00,,2013-08-11 17:33:00,
2013-08-11 12:44:00,95.0,73.0,29.99,SSE,150,1.0,6.0,50,0.00,,,0.00,,2013-08-11 17:44:00,
2013-08-11 12:54:00,96.0,74.0,29.98,SSE,149,2.0,6.0,49,0.00,,,0.00,,2013-08-11 17:54:00,
2013-08-11 13:05:00,97.0,73.0,29.98,SE,131,1.0,6.0,47,0.00,,,0.00,,2013-08-11 18:05:00,
2013-08-11 13:17:00,98.0,73.0,29.98,SE,136,3.0,7.0,45,0.00,,,0.00,,2013-08-11 18:17:00,
2013-08-11 13:23:00,96.0,73.0,29.97,South,174,3.0,8.0,48,0.00,,,0.00,,2013-08-11 18:23:00,
2013-08-11 13:37:00,95.0,72.0,29.97,South,175,5.0,9.0,48,0.00,,,0.00,,2013-08-11 18:37:00,
2013-08-11 13:45:00,96.0,74.0,29.97,South,181,5.0,12.0,49,0.00,,,0.00,,2013-08-11 18:45:00,
2013-08-11 13:53:00,96.0,72.0,29.97,SSE,165,3.0,6.0,47,0.00,,,0.00,,2013-08-11 18:53:00,
2013-08-11 14:04:00,96.0,72.0,29.96,SSE,163,1.0,7.0,47,0.00,,,0.00,,2013-08-11 19:04:00,
2013-08-11 14:13:00,98.0,73.0,29.96,SE,138,2.0,7.0,45,0.00,,,0.00,,2013-08-11 19:13:00,
2013-08-11 14:23:00,99.0,73.0,29.95,SE,138,3.0,5.0,44,0.00,,,0.00,,2013-08-11 19:23:00,
2013-08-11 14:32:00,99.0,73.0,29.95,SE,126,2.0,7.0,44,0.00,,,0.00,,2013-08-11 19:32:00,
2013-08-11 14:47:00,99.0,73.0,29.94,ESE,113,3.0,12.0,43,0.00,,,0.00,,2013-08-11 19:47:00,
2013-08-11 14:55:00,99.0,72.0,29.94,ESE,113,2.0,6.0,42,0.00,,,0.00,,2013-08-11 19:55:00,
2013-08-11 15:03:00,101.0,73.0,29.93,ESE,113,1.0,7.0,41,0.00,,,0.00,,2013-08-11 20:03:00,
2013-08-11 15:17:00,101.0,73.0,29.93,ESE,104,3.0,7.0,41,0.00,,,0.00,,2013-08-11 20:17:00,
2013-08-11 15:25:00,101.0,73.0,29.93,ENE,73,6.0,8.0,41,0.00,,,0.00,,2013-08-11 20:25:00,
2013-08-11 15:35:00,101.0,72.0,29.92,ENE,72,2.0,7.0,40,0.00,,,0.00,,2013-08-11 20:35:00,
2013-08-11 15:45:00,100.0,72.0,29.92,ENE,69,3.0,6.0,41,0.00,,,0.00,,2013-08-11 20:45:00,
2013-08-11 15:53:00,100.0,71.0,29.91,ENE,65,0.0,5.0,40,0.00,,,0.00,,2013-08-11 20:53:00,
2013-08-11 16:04:00,100.0,70.0,29.91,ENE,65,1.0,3.0,38,0.00,,,0.00,,2013-08-11 21:04:00,
2013-08-11 16:12:00,99.0,70.0,29.90,SE,126,2.0,8.0,40,0.00,,,0.00,,2013-08-11 21:12:00,
2013-08-11 16:33:00,101.0,71.0,29.90,SE,145,0.0,5.0,38,0.00,,,0.00,,2013-08-11 21:33:00,
2013-08-11 16:53:00,102.0,70.0,29.89,East,82,2.0,6.0,36,0.00,,,0.00,,2013-08-11 21:53:00,
2013-08-11 17:03:00,102.0,70.0,29.89,ENE,77,1.0,8.0,36,0.00,,,0.00,,2013-08-11 22:03:00,
2013-08-11 17:53:00,100.0,68.0,29.88,SSE,167,0.0,3.0,36,0.00,,,0.00,,2013-08-11 22:53:00,
2013-08-11 18:33:00,102.0,68.0,29.88,ESE,103,2.0,6.0,34,0.00,,,0.00,,2013-08-11 23:33:00,
2013-08-11 18:45:00,102.0,68.0,29.88,ESE,104,1.0,6.0,34,0.00,,,0.00,,2013-08-11 23:45:00,
2013-08-11 18:55:00,103.0,69.0,29.87,ESE,104,1.0,7.0,34,0.00,,,0.00,,2013-08-11 23:55:00,
2013-08-11 19:34:00,101.0,69.0,29.88,ESE,109,0.0,2.0,36,0.00,,,0.00,,2013-08-12 00:34:00,
2013-08-11 20:13:00,96.0,71.0,29.88,SE,135,4.0,8.0,44,0.00,,,0.00,,2013-08-12 01:13:00,
2013-08-11 20:23:00,96.0,71.0,29.88,SE,134,3.0,7.0,44,0.00,,,0.00,,2013-08-12 01:23:00,
2013-08-11 20:44:00,95.0,70.0,29.89,SE,134,2.0,5.0,45,0.00,,,0.00,,2013-08-12 01:44:00,
2013-08-11 20:53:00,95.0,70.0,29.90,SE,134,3.0,6.0,45,0.00,,,0.00,,2013-08-12 01:53:00,
2013-08-11 21:05:00,94.0,71.0,29.90,ENE,63,5.0,10.0,47,0.00,,,0.00,,2013-08-12 02:05:00,
2013-08-11 21:13:00,91.0,70.0,29.91,East,90,5.0,10.0,51,0.00,,,0.00,,2013-08-12 02:13:00,
2013-08-11 21:34:00,90.0,72.0,29.90,ESE,116,7.0,15.0,55,0.00,,,0.00,,2013-08-12 02:34:00,
2013-08-11 21:45:00,90.0,72.0,29.91,ESE,121,4.0,12.0,55,0.00,,,0.00,,2013-08-12 02:45:00,
2013-08-11 21:53:00,90.0,72.0,29.92,ESE,114,1.0,7.0,55,0.00,,,0.00,,2013-08-12 02:53:00,
2013-08-11 22:05:00,89.0,71.0,29.91,ESE,114,2.0,5.0,55,0.00,,,0.00,,2013-08-12 03:05:00,
2013-08-11 22:14:00,89.0,71.0,29.92,ESE,116,5.0,8.0,55,0.00,,,0.00,,2013-08-12 03:14:00,
2013-08-11 22:35:00,88.0,70.0,29.93,ESE,118,3.0,7.0,56,0.00,,,0.00,,2013-08-12 03:35:00,
2013-08-11 22:45:00,88.0,70.0,29.94,ESE,118,1.0,5.0,56,0.00,,,0.00,,2013-08-12 03:45:00,
2013-08-11 22:54:00,88.0,70.0,29.94,ESE,118,0.0,3.0,56,0.00,,,0.00,,2013-08-12 03:54:00,
2013-08-11 23:02:00,88.0,70.0,29.96,ESE,118,3.0,7.0,56,0.00,,,0.00,,2013-08-12 04:02:00,
2013-08-11 23:12:00,88.0,71.0,29.96,SE,142,6.0,12.0,57,0.00,,,0.00,,2013-08-12 04:12:00,
2013-08-11 23:22:00,87.0,70.0,29.96,SSE,165,5.0,12.0,58,0.00,,,0.00,,2013-08-12 04:22:00,
2013-08-11 23:33:00,87.0,71.0,29.97,SSE,153,6.0,12.0,59,0.00,,,0.00,,2013-08-12 04:33:00,
2013-08-11 23:43:00,87.0,71.0,29.97,SSE,163,5.0,10.0,60,0.00,,,0.00,,2013-08-12 04:43:00,
2013-08-11 23:52:00,86.0,70.0,29.98,South,171,5.0,8.0,60,0.00,,,0.00,,2013-08-12 04:52:00,